QPF
0.00 0.00 0.00 0.00 0.00 0.00 0.00 0.01 0.00 0.00 0.05 0.46 0.18 0.00 0.00 0.00 0.03 0.07 0.07 0.06 0.04 0.02 0.04 0.18 0.15 0.02 0.00 -0.00 0.00 0.00 0.00 -0.00 0.00 0.00 0.00 -0.00 0.00 0.00 0.00 0.00 0.00 0.00 0.00 0.00 0.00 0.00 0.00 0.00 0.00 0.00 0.00 0.00 0.00 0.00 0.00 0.00 0.00 0.00 0.00 -0.00 -0.00 0.00 0.00
-0.00 0.00 0.00 -0.00 0.00 0.00 0.00 0.03 0.13 0.13 0.25 0.14 0.15 0.02 0.00 0.01 0.02 0.03 0.06 0.06 0.08 0.22 0.12 0.26 0.17 0.05 0.01 0.00 0.00 0.00 0.00 0.00 0.00 0.00 0.00 0.00 0.00 0.00 0.00 -0.00 -0.00 0.00 0.00 0.00 0.00 0.00 0.00 0.00 0.00 0.00 0.00 -0.00 0.00 0.00 -0.00 0.00 0.00 0.00 -0.00 0.00 0.00 0.00 0.00
-0.00 0.00 -0.00 0.00 0.01 0.01 0.04 0.21 0.27 0.59 0.88 0.39 0.51 0.10 0.11 0.16 0.04 0.02 0.03 0.03 0.07 0.10 0.15 0.24 0.20 0.10 0.01 0.00 0.00 0.00 0.00 0.00 -0.00 0.00 0.00 0.00 0.00 0.00 0.00 0.00 -0.00 0.00 -0.00 0.00 0.00 0.00 -0.00 0.00 0.00 0.00 0.00 0.00 0.00 0.00 0.00 0.00 0.00 -0.00 0.00 0.00 0.00 0.00 -0.00
-0.00 0.00 0.00 0.00 0.02 0.01 0.03 0.14 0.33 0.56 1.02 0.90 0.12 0.09 0.05 0.05 0.04 0.02 0.04 0.03 0.10 0.17 0.31 0.20 0.22 0.14 0.02 0.00 0.00 0.00 0.00 0.00 -0.00 0.00 0.00 0.00 0.00 0.00 0.00 0.00 0.00 -0.00 0.00 0.00 0.00 0.00 0.00 0.00 0.00 0.00 -0.00 0.00 0.00 -0.00 0.00 0.00 0.00 0.00 0.00 0.00 0.00 0.00 0.00
0.00 0.00 -0.00 0.00 0.00 0.01 0.04 0.28 0.63 0.56 1.03 0.11 0.01 0.02 0.02 0.02 0.03 0.02 0.02 0.02 0.10 0.17 0.24 0.17 0.10 0.05 0.02 0.00 0.00 0.00 0.00 0.00 0.00 -0.00 -0.00 0.00 -0.00 0.00 0.00 0.00 0.00 0.00 0.00 0.00 0.00 0.00 -0.00 -0.00 -0.00 0.00 -0.00 0.00 -0.00 0.00 0.00 0.00 -0.00 -0.00 0.00 0.00 0.00 -0.00 0.00
0.00 0.00 -0.00 0.00 0.00 0.01 0.00 0.22 0.59 1.18 0.28 0.04 0.07 0.01 0.03 0.15 0.06 0.05 0.01 0.01 0.03 0.05 0.04 0.05 0.04 0.02 0.01 0.00 0.00 -0.00 0.00 0.00 0.00 0.00 0.00 0.00 0.00 -0.00 -0.00 0.00 0.00 0.00 0.00 -0.00 0.00 0.00 0.00 0.00 0.00 0.00 0.00 0.00 0.00 0.00 0.00 0.00 0.00 0.00 0.00 -0.00 0.00 0.00 0.00
0.00 0.00 0.00 0.00 0.00 0.00 0.01 0.03 0.34 0.18 0.00 0.02 0.07 0.05 0.07 0.09 0.02 0.01 0.00 0.00 0.00 0.00 0.00 0.00 0.01 0.00 0.00 0.00 0.00 0.00 0.00 -0.00 0.00 0.00 -0.00 -0.00 0.00 0.00 0.00 0.00 0.00 0.00 0.00 0.00 0.00 0.00 0.00 0.00 0.00 0.00 0.00 0.00 0.00 0.00 0.00 -0.00 -0.00 0.00 0.00 0.00 0.00 0.00 -0.00
0.00 0.00 0.00 0.00 0.00 0.00 0.01 0.01 0.04 0.01 0.01 0.03 0.02 0.02 0.04 0.03 0.02 0.01 0.01 0.08 0.02 0.00 0.00 0.00 0.00 -0.00 0.00 0.00 0.00 0.00 0.00 0.00 0.00 0.00 0.00 0.00 0.00 0.00 0.00 0.00 -0.00 0.00 0.00 0.00 0.00 0.00 -0.00 0.00 0.00 0.00 0.00 0.00 0.00 -0.00 -0.00 0.00 0.00 0.00 -0.00 -0.00 0.00 0.00 0.00
0.00 0.00 0.00 0.00 0.00 0.00 0.00 0.00 0.00 0.00 0.00 0.01 0.01 0.02 0.04 0.03 0.02 0.01 0.01 0.00 -0.00 0.00 0.00 0.00 0.00 0.00 0.00 0.00 0.00 -0.00 0.00 0.00 0.00 0.00 0.00 -0.00 0.00 0.00 -0.00 0.00 -0.00 0.00 -0.00 -0.00 -0.00 0.00 -0.00 0.00 -0.00 -0.00 0.00 0.00 0.00 0.00 0.00 -0.00 0.00 -0.00 -0.00 0.00 0.00 0.00 0.00
0.00 0.00 0.00 0.00 0.00 0.00 0.01 0.03 0.01 0.00 0.00 0.00 0.02 0.05 0.06 0.07 0.22 0.13 0.02 0.01 0.01 0.00 0.00 0.00 -0.00 0.00 0.00 0.00 -0.00 0.00 -0.00 0.00 0.00 0.00 0.00 0.00 -0.00 0.00 0.00 0.00 0.00 0.00 0.00 -0.00 0.00 0.00 0.00 -0.00 0.00 0.00 0.00 0.00 0.00 0.00 0.00 0.00 0.00 0.00 0.00 0.00 0.00 0.00 0.00
0.00 0.00 0.00 0.00 0.04 0.01 0.00 0.01 0.02 0.01 0.00 0.01 0.04 0.08 0.10 0.08 0.05 0.05 0.05 0.04 0.02 0.01 0.01 0.01 0.01 0.01 0.00 0.00 0.00 0.00 0.00 0.00 0.00 0.00 0.00 0.00 0.00 0.00 0.00 0.00 0.00 0.00 -0.00 0.00 0.00 -0.00 0.00 -0.00 0.00 0.00 0.00 0.00 0.00 0.00 0.00 0.00 0.00 0.00 0.00 0.00 0.00 0.00 -0.00
0.01 0.00 0.03 0.09 0.02 0.00 0.00 0.00 0.00 0.00 0.00 0.00 0.02 0.06 0.09 0.07 0.05 0.05 0.04 0.03 0.02 0.02 0.01 0.01 0.01 0.01 0.00 0.00 0.00 -0.00 0.00 0.00 -0.00 0.00 0.00 0.00 0.00 0.00 0.00 -0.00 -0.00 -0.00 0.00 0.00 0.00 -0.00 0.00 0.00 -0.00 0.00 0.00 0.00 0.00 -0.00 0.00 0.00 0.00 0.00 0.00 0.00 0.00 0.00 -0.00
0.02 0.01 0.00 0.00 0.00 0.00 0.00 0.00 0.00 -0.00 0.00 0.00 0.01 0.02 0.04 0.05 0.04 0.04 0.03 0.02 0.05 0.01 0.00 0.00 0.00 0.00 0.00 0.00 0.00 0.00 0.00 0.00 0.00 0.00 -0.00 0.00 0.00 0.00 0.00 -0.00 -0.00 0.00 0.00 0.00 0.00 0.00 -0.00 0.00 0.00 0.00 0.00 0.00 0.00 0.00 -0.00 0.00 0.00 0.00 -0.00 0.00 0.00 0.00 0.00
0.00 0.01 0.00 0.00 0.00 0.00 0.00 0.08 0.70 0.05 0.00 0.00 0.01 0.01 0.02 0.02 0.03 0.05 0.06 0.04 0.10 0.00 0.00 0.00 0.00 0.00 -0.00 -0.00 0.00 0.00 0.00 0.00 0.00 -0.00 0.00 0.00 0.00 -0.00 -0.00 0.00 0.00 0.00 -0.00 0.00 0.00 0.00 -0.00 0.00 0.00 0.00 0.00 0.00 0.00 0.00 -0.00 0.00 0.00 0.00 0.00 0.00 0.00 0.00 0.00
0.00 0.00 0.00 0.00 0.00 0.00 0.00 0.00 0.32 0.01 0.01 0.01 0.01 0.01 0.01 0.01 0.15 0.38 0.61 0.80 0.87 0.45 0.26 0.01 0.00 0.00 0.00 -0.00 -0.00 0.00 -0.00 0.00 -0.00 0.00 0.00 0.00 -0.00 0.00 0.00 0.00 0.00 0.00 -0.00 0.00 0.00 0.00 0.00 0.00 0.00 0.00 0.00 -0.00 0.00 -0.00 0.00 -0.00 0.00 0.00 0.00 0.00 0.00 0.00 0.00
0.01 0.00 0.00 -0.00 0.00 0.00 0.00 0.04 0.12 0.03 0.04 0.01 0.01 0.02 0.43 0.38 0.94 0.19 0.23 0.42 0.28 0.23 0.13 0.37 0.49 0.20 0.01 0.00 0.00 0.00 0.00 0.00 0.00 -0.00 0.00 0.00 0.00 -0.00 0.00 -0.00 0.00 0.00 -0.00 0.00 0.00 0.00 0.00 -0.00 0.00 0.00 0.00 0.00 -0.00 0.00 0.00 0.00 -0.00 0.00 -0.00 -0.00 0.00 0.00 0.00
0.00 0.00 0.00 0.00 -0.00 0.00 0.00 0.00 0.01 0.01 0.05 0.25 0.02 0.61 0.14 0.82 1.04 0.46 0.29 0.74 0.33 0.11 0.16 0.33 0.06 0.01 0.00 0.00 0.00 -0.00 0.00 0.00 -0.00 -0.00 0.00 0.00 0.00 0.00 -0.00 -0.00 0.00 0.00 -0.00 0.00 -0.00 0.00 0.00 0.00 0.00 0.00 0.00 0.00 -0.00 -0.00 0.00 0.00 -0.00 0.00 0.00 0.00 0.00 0.00 0.00
0.00 0.00 0.00 0.00 0.00 0.00 0.00 0.00 0.00 0.00 0.01 0.02 0.02 0.16 0.73 1.65 1.20 0.58 0.43 0.44 0.30 0.23 0.21 0.14 0.06 0.02 0.00 0.00 0.00 0.00 0.00 0.00 0.00 0.00 0.00 0.00 0.00 0.00 0.00 0.00 0.00 0.00 0.00 0.00 0.00 0.00 0.00 0.00 0.00 0.00 0.00 0.00 0.00 0.00 -0.00 0.00 0.00 0.00 0.00 0.00 0.00 0.00 0.00
0.00 0.00 0.00 0.00 0.00 0.00 0.00 0.00 0.00 0.02 0.01 0.17 0.91 0.95 0.32 0.55 0.23 0.23 0.24 0.26 0.30 0.26 0.16 0.07 0.02 0.01 0.00 0.00 0.00 0.00 0.00 0.00 0.00 0.00 0.00 0.00 0.00 0.00 -0.00 -0.00 0.00 -0.00 0.00 0.00 0.00 0.00 0.00 0.00 0.00 0.00 0.00 0.00 0.00 0.00 0.00 0.00 0.00 0.00 0.00 0.00 0.00 -0.00 0.00
0.00 0.00 0.00 0.00 0.00 0.00 0.00 0.01 0.01 0.01 0.02 0.12 0.13 0.21 0.43 0.35 0.69 0.95 0.62 0.51 0.34 0.33 0.32 0.24 0.09 0.01 0.00 0.00 -0.00 0.00 0.00 -0.00 -0.00 0.00 0.00 0.00 0.00 0.00 0.00 0.00 0.00 0.00 0.00 0.00 0.00 -0.00 -0.00 -0.00 0.00 0.00 0.00 0.00 0.00 0.00 -0.00 0.00 -0.00 0.00 0.00 0.00 0.00 0.00 0.00
0.00 0.00 -0.00 0.00 0.00 0.00 0.00 0.00 0.01 0.01 0.01 0.02 0.11 0.78 0.52 0.81 0.64 0.44 0.38 0.23 0.26 0.31 0.30 0.18 0.20 0.07 0.01 0.00 0.00 0.00 -0.00 0.00 0.00 0.00 0.00 -0.00 0.00 0.00 0.00 0.00 0.00 0.00 -0.00 -0.00 0.00 0.00 0.00 0.00 -0.00 0.00 0.00 -0.00 0.00 0.00 0.00 -0.00 -0.00 0.00 -0.00 0.00 0.00 0.00 0.00
0.00 0.00 0.00 -0.00 0.00 0.00 0.00 0.00 0.05 0.04 0.01 0.05 0.32 0.85 0.52 0.44 0.43 0.39 0.38 0.40 0.32 0.28 0.32 0.19 0.16 0.13 0.03 0.00 -0.00 0.00 -0.00 0.00 -0.00 0.00 0.00 0.00 0.00 0.00 0.00 -0.00 0.00 0.00 -0.00 0.00 0.00 0.00 0.00 0.00 -0.00 0.00 -0.00 -0.00 0.00 0.00 0.00 0.00 0.00 -0.00 -0.00 -0.00 -0.00 0.00 0.00
0.00 0.00 0.00 0.00 0.00 0.02 0.03 0.00 0.00 0.03 0.34 0.12 0.08 0.06 0.41 0.53 0.38 0.33 0.38 0.32 0.38 0.31 0.24 0.19 0.12 0.10 0.02 0.00 0.00 0.00 0.00 0.00 0.00 0.00 0.00 -0.00 0.00 0.00 0.00 0.00 0.00 0.00 0.00 0.00 0.00 0.00 0.00 0.00 -0.00 0.00 0.00 0.00 0.00 0.00 0.00 0.00 -0.00 0.00 0.00 0.00 0.00 -0.00 0.00
0.00 0.00 0.00 0.00 0.00 0.00 0.01 0.00 0.00 0.01 0.08 0.15 0.41 0.29 0.27 0.33 0.50 0.40 0.35 0.43 0.31 0.22 0.17 0.21 0.15 0.07 0.01 0.00 0.00 0.00 0.00 0.00 0.00 0.00 0.00 0.00 -0.00 0.00 0.00 0.00 -0.00 -0.00 0.00 0.00 -0.00 -0.00 -0.00 -0.00 0.00 0.00 -0.00 0.00 -0.00 0.00 0.00 0.00 -0.00 -0.00 0.00 0.00 0.00 -0.00 -0.00
0.00 0.00 0.00 0.00 0.00 0.00 0.00 0.00 0.00 0.00 0.01 0.02 0.09 0.31 0.26 0.28 0.19 0.36 0.46 0.23 0.21 0.17 0.13 0.08 0.04 0.01 0.00 0.00 -0.00 0.00 0.00 0.00 0.00 0.00 0.00 -0.00 0.00 0.00 -0.00 0.00 0.00 0.00 0.00 0.00 0.00 0.00 0.00 0.00 0.00 0.00 0.00 -0.00 0.00 0.00 0.00 0.00 0.00 -0.00 0.00 0.00 0.00 0.00 0.00
0.00 0.00 0.00 0.00 0.00 0.00 0.00 0.00 0.00 0.00 0.00 0.00 0.02 0.03 0.04 0.07 0.21 0.19 0.06 0.07 0.07 0.22 0.12 0.02 0.01 0.00 0.00 0.00 0.00 -0.00 0.00 -0.00 0.00 -0.00 0.00 0.00 0.00 0.00 -0.00 0.00 0.00 0.00 0.00 -0.00 0.00 0.00 0.00 0.00 0.00 0.00 0.00 0.00 0.00 0.00 0.00 0.00 0.00 0.00 -0.00 0.00 0.00 0.00 0.00
0.00 0.00 0.00 0.00 0.00 0.00 0.00 0.00 0.00 0.00 0.00 0.00 0.00 0.01 0.00 0.01 0.01 0.02 0.01 0.02 0.03 0.02 0.01 0.01 0.00 0.00 0.00 -0.00 0.00 0.00 0.00 0.00 -0.00 0.00 0.00 0.00 -0.00 0.00 0.00 0.00 0.00 0.00 0.00 -0.00 -0.00 0.00 0.00 0.00 0.00 0.00 0.00 0.00 0.00 0.00 0.00 -0.00 0.00 0.00 0.00 0.00 0.00 0.00 -0.00
0.00 0.00 0.00 0.00 0.00 0.00 0.00 0.00 0.00 0.00 0.00 0.00 0.00 0.00 0.00 0.00 0.00 0.00 0.00 0.00 0.00 0.00 0.01 0.00 0.00 0.00 -0.00 -0.00 -0.00 0.00 -0.00 0.00 0.00 0.00 0.00 0.00 0.00 0.00 0.00 0.00 0.00 0.00 -0.00 0.00 -0.00 0.00 -0.00 0.00 0.00 0.00 0.00 0.00 0.00 -0.00 -0.00 0.00 0.00 0.00 0.00 0.00 0.00 -0.00 0.00
0.00 0.00 0.00 0.00 0.00 0.00 0.00 0.00 0.00 0.00 0.00 0.00 0.00 0.00 0.00 0.00 0.00 0.00 0.00 0.00 0.02 0.05 0.02 0.00 0.00 0.00 0.00 0.00 -0.00 0.00 0.00 0.00 -0.00 0.00 0.00 0.00 0.00 0.00 0.00 0.00 -0.00 -0.00 0.00 0.00 0.00 0.00 0.00 0.00 0.00 -0.00 0.00 0.00 0.00 0.00 0.00 0.00 -0.00 0.00 -0.00 0.00 -0.00 0.00 0.00
0.00 0.00 0.00 0.00 0.00 0.00 0.00 0.00 0.00 0.00 0.00 0.00 0.00 0.00 0.00 0.00 0.00 0.00 0.00 0.00 0.00 -0.00 0.00 -0.00 0.00 0.00 0.00 0.00 0.00 0.00 0.00 0.00 0.00 0.00 0.01 0.00 -0.00 -0.00 0.00 0.00 -0.00 -0.00 0.00 0.00 0.00 0.00 -0.00 0.00 0.00 0.00 0.00 0.00 0.00 0.00 0.00 0.00 0.00 0.00 0.00 0.00 -0.00 0.00 0.00
0.00 0.00 0.00 0.00 0.00 0.00 0.00 0.00 0.00 0.00 0.00 0.00 0.00 0.00 0.00 0.00 -0.00 0.00 -0.00 -0.00 0.00 0.00 0.00 -0.00 0.00 0.00 0.00 -0.00 -0.00 -0.00 0.00 0.00 0.00 0.00 0.00 0.01 0.00 0.00 0.00 -0.00 0.00 0.00 0.00 0.00 0.00 0.00 0.00 -0.00 -0.00 0.00 -0.00 0.00 0.00 0.00 0.00 0.00 -0.00 -0.00 0.00 0.00 0.00 0.00 -0.00
0.00 0.00 0.00 0.00 -0.00 0.00 0.00 0.00 0.00 0.00 0.00 0.00 0.00 0.00 0.00 0.00 0.00 0.00 0.00 0.00 0.00 0.00 0.01 0.01 -0.00 0.00 0.00 -0.00 0.00 0.00 0.00 0.00 0.00 0.07 0.05 0.00 0.00 -0.00 0.00 0.00 -0.00 0.00 0.00 0.00 0.00 0.00 -0.00 0.00 0.00 0.00 0.00 0.00 0.00 0.00 0.00 0.00 0.00 -0.00 0.00 0.00 0.00 0.00 0.00
0.00 0.00 0.00 0.00 0.00 0.00 0.00 0.00 0.00 0.00 0.00 0.00 0.00 0.00 0.00 0.00 0.00 0.00 0.00 0.00 0.00 0.00 0.00 0.00 -0.00 0.00 0.00 0.00 0.00 0.00 0.00 -0.00 -0.00 0.00 0.04 -0.00 -0.00 -0.00 0.00 0.00 0.00 0.00 -0.00 0.00 0.00 -0.00 0.00 0.00 0.00 0.00 0.00 0.00 0.00 -0.00 0.00 0.00 0.00 -0.00 -0.00 0.00 0.00 -0.00 0.00
0.00 0.00 0.00 0.00 0.00 0.00 0.00 0.00 0.00 0.00 0.00 0.00 0.01 0.00 0.00 0.00 0.00 0.00 0.00 0.06 0.00 0.00 -0.00 -0.00 0.00 -0.00 -0.00 -0.00 -0.00 0.00 0.00 0.00 0.00 0.00 0.00 0.00 0.00 0.00 0.00 0.00 -0.00 0.00 0.00 -0.00 0.00 0.00 -0.00 0.00 0.00 0.00 0.00 -0.00 0.00 -0.00 0.00 0.00 0.00 0.00 0.00 0.00 0.00 0.00 0.00
0.00 0.00 0.00 0.00 0.00 0.00 0.00 0.01 0.01 0.00 0.00 0.00 0.00 0.00 0.00 0.00 0.00 0.00 0.00 0.04 0.01 -0.00 0.00 0.00 0.00 0.00 0.00 0.00 0.00 0.00 0.00 0.00 0.02 0.00 0.00 0.00 0.03 0.00 0.00 -0.00 0.00 0.00 -0.00 0.00 0.00 0.00 0.00 0.00 0.00 0.00 0.00 -0.00 0.00 0.00 -0.00 -0.00 0.00 0.00 0.00 -0.00 0.00 0.00 -0.00
0.00 0.00 0.00 0.00 0.00 0.00 0.00 0.00 0.00 0.01 0.01 0.00 0.00 0.01 0.02 0.01 0.01 0.00 0.00 0.00 0.30 0.32 0.02 0.02 0.02 0.01 0.02 0.01 0.00 0.00 0.00 -0.00 0.01 0.00 0.00 0.02 0.00 -0.00 0.00 -0.00 -0.00 -0.00 0.00 -0.00 0.00 0.00 -0.00 0.00 0.00 0.00 0.00 0.00 0.00 0.00 0.00 0.00 0.00 0.00 0.00 0.00 0.00 -0.00 0.00
0.00 0.00 0.00 0.00 0.00 0.00 0.00 0.00 0.00 0.00 0.00 0.00 0.01 0.01 0.01 0.05 0.06 0.01 0.01 0.03 0.22 0.44 0.28 0.18 0.08 0.14 0.13 0.07 0.02 0.01 0.00 0.00 0.00 0.03 0.01 0.01 -0.00 0.00 -0.00 0.00 0.00 0.00 0.00 0.00 0.00 -0.00 0.00 0.00 0.00 0.00 0.00 -0.00 0.00 -0.00 -0.00 0.00 -0.00 -0.00 -0.00 0.00 0.00 -0.00 -0.00
MSLP
1012.50 1012.86 1012.94 1013.22 1013.38 1013.54 1013.70 1013.74 1013.82 1013.90 1013.82 1013.62 1013.66 1013.98 1014.18 1014.46 1014.74 1014.90 1015.02 1015.14 1015.26 1015.38 1015.46 1015.38 1015.50 1015.54 1015.58 1015.62 1015.58 1015.70 1015.90 1015.90 1016.14 1016.70 1017.30 1017.42 1017.62 1017.74 1017.58 1017.54 1017.74 1017.86 1017.86 1017.82 1017.94 1018.34 1018.86 1019.22 1018.94 1018.34 1018.26 1018.38 1018.54 1018.82 1018.94 1019.22 1019.30 1019.38 1019.58 1019.62 1019.66 1019.74 1019.82
1012.22 1012.66 1012.90 1013.14 1013.42 1013.46 1013.74 1014.02 1014.18 1014.18 1013.94 1013.78 1013.78 1013.74 1013.94 1014.18 1014.42 1014.66 1014.90 1015.10 1015.22 1015.34 1015.42 1015.42 1015.46 1015.50 1015.62 1015.74 1015.86 1015.94 1016.02 1016.14 1016.10 1016.50 1016.86 1017.26 1017.34 1017.50 1017.58 1017.74 1017.86 1018.06 1018.10 1018.18 1018.26 1018.18 1018.58 1019.06 1019.62 1019.46 1019.18 1018.74 1019.02 1019.38 1019.42 1019.38 1019.46 1019.54 1019.62 1019.66 1019.66 1019.82 1019.90
1012.30 1012.66 1012.82 1013.30 1013.46 1013.54 1013.86 1014.14 1014.10 1014.02 1014.02 1014.30 1014.22 1014.18 1014.10 1014.14 1014.34 1014.58 1014.82 1014.94 1015.02 1015.22 1015.30 1015.22 1015.34 1015.54 1015.74 1015.82 1015.82 1015.90 1016.06 1016.18 1016.30 1016.38 1016.78 1017.18 1017.18 1017.30 1017.38 1017.58 1017.86 1018.30 1018.30 1018.38 1018.42 1018.46 1018.70 1018.70 1019.18 1019.62 1019.62 1019.54 1019.98 1020.26 1019.94 1019.82 1019.74 1019.74 1019.74 1019.70 1019.78 1019.90 1020.02
1012.30 1012.62 1013.02 1013.30 1013.38 1013.58 1013.86 1014.02 1014.02 1013.94 1014.06 1014.30 1014.26 1014.14 1014.22 1014.30 1014.46 1014.66 1014.82 1014.90 1014.98 1015.14 1015.14 1015.06 1015.18 1015.46 1015.70 1015.90 1015.98 1015.98 1016.10 1016.18 1016.38 1016.54 1016.90 1017.10 1017.14 1017.22 1017.38 1017.50 1017.78 1017.90 1018.10 1018.50 1018.62 1018.58 1018.62 1018.94 1019.34 1019.50 1019.58 1019.74 1019.94 1020.34 1020.30 1020.06 1019.94 1019.90 1019.86 1019.82 1019.90 1020.02 1020.06
1011.94 1012.34 1012.62 1012.90 1012.90 1013.22 1013.58 1013.86 1013.94 1014.10 1014.22 1014.34 1014.46 1014.46 1014.30 1014.26 1014.46 1014.70 1014.82 1014.90 1015.06 1015.14 1015.06 1014.90 1015.14 1015.34 1015.66 1015.90 1015.98 1016.10 1016.30 1016.34 1016.38 1016.58 1016.86 1017.10 1017.14 1017.30 1017.58 1017.82 1018.02 1018.14 1018.22 1018.34 1018.58 1018.54 1018.54 1018.82 1018.90 1019.34 1019.30 1019.58 1019.94 1020.10 1020.30 1020.22 1020.10 1020.06 1020.06 1020.06 1020.06 1020.06 1020.10
1011.62 1011.82 1011.98 1012.26 1012.46 1013.02 1013.46 1013.78 1014.06 1014.18 1014.34 1014.58 1014.42 1014.46 1014.38 1014.10 1014.22 1014.58 1014.82 1014.86 1014.90 1015.02 1015.02 1014.98 1015.14 1015.34 1015.62 1015.90 1016.02 1016.22 1016.38 1016.38 1016.42 1016.58 1016.90 1017.10 1017.06 1017.26 1017.86 1018.22 1018.38 1018.42 1018.46 1018.54 1018.58 1018.66 1018.82 1018.86 1018.82 1019.18 1019.54 1019.66 1019.82 1020.30 1020.18 1020.06 1020.22 1020.18 1020.18 1020.30 1020.22 1020.22 1020.10
1011.26 1011.34 1011.50 1011.86 1012.34 1012.86 1013.14 1013.50 1013.66 1013.78 1014.06 1014.10 1014.06 1014.02 1013.94 1013.94 1013.90 1014.02 1014.30 1014.54 1014.58 1014.74 1014.78 1014.90 1015.06 1015.30 1015.54 1015.90 1016.06 1016.34 1016.46 1016.38 1016.34 1016.62 1016.94 1017.14 1017.26 1017.58 1017.86 1018.22 1018.50 1018.58 1018.62 1018.62 1018.58 1018.58 1018.66 1018.70 1018.94 1018.94 1019.30 1019.82 1019.94 1019.98 1020.06 1020.14 1020.10 1020.22 1020.34 1020.26 1020.30 1020.18 1020.10
1010.90 1011.10 1011.30 1011.58 1012.18 1012.82 1013.06 1013.26 1013.42 1013.42 1013.58 1013.62 1013.66 1013.54 1013.62 1013.62 1013.62 1013.78 1014.06 1014.38 1014.54 1014.58 1014.66 1014.86 1015.06 1015.26 1015.54 1015.78 1016.06 1016.26 1016.30 1016.10 1016.30 1016.62 1016.98 1017.10 1017.38 1017.70 1017.94 1018.18 1018.50 1018.54 1018.54 1018.50 1018.42 1018.46 1018.46 1018.54 1018.74 1019.02 1019.18 1019.62 1020.02 1020.18 1020.22 1020.18 1020.22 1020.18 1020.42 1020.46 1020.34 1020.34 1020.22
1010.58 1010.86 1011.26 1011.58 1011.98 1012.26 1012.70 1012.90 1013.06 1013.10 1013.10 1013.06 1013.18 1013.38 1013.38 1013.42 1013.46 1013.58 1013.78 1014.06 1014.22 1014.34 1014.50 1014.66 1014.90 1015.14 1015.38 1015.58 1015.90 1016.02 1016.10 1016.02 1016.38 1016.74 1017.02 1017.14 1017.50 1017.78 1018.02 1018.34 1018.42 1018.50 1018.50 1018.42 1018.34 1018.34 1018.42 1018.54 1018.62 1018.86 1019.06 1019.18 1019.54 1020.46 1020.54 1020.66 1020.62 1020.58 1020.30 1020.54 1020.58 1020.42 1020.30
1010.42 1010.74 1011.06 1011.46 1011.86 1012.14 1012.30 1012.46 1012.62 1012.74 1012.82 1012.90 1012.98 1012.98 1013.14 1013.30 1013.42 1013.42 1013.58 1013.78 1013.94 1014.10 1014.30 1014.50 1014.66 1014.90 1015.06 1015.26 1015.58 1015.78 1015.94 1016.18 1016.42 1016.86 1017.06 1017.26 1017.62 1017.90 1018.10 1018.14 1018.30 1018.42 1018.46 1018.34 1018.30 1018.30 1018.34 1018.50 1018.74 1018.86 1019.02 1019.10 1019.38 1019.70 1020.30 1020.58 1020.58 1020.54 1020.38 1020.30 1020.62 1020.58 1020.34
1010.22 1010.50 1010.86 1011.30 1011.70 1012.06 1012.30 1012.34 1012.62 1012.82 1012.74 1012.66 1012.74 1012.78 1012.86 1013.02 1013.18 1013.22 1013.34 1013.54 1013.70 1013.86 1014.10 1014.34 1014.54 1014.74 1014.90 1015.18 1015.42 1015.62 1015.90 1016.18 1016.62 1016.94 1017.14 1017.34 1017.70 1017.94 1018.10 1018.22 1018.22 1018.38 1018.38 1018.30 1018.30 1018.38 1018.46 1018.54 1018.74 1018.90 1019.02 1019.22 1019.18 1019.38 1019.82 1020.30 1020.66 1020.46 1020.46 1020.42 1020.30 1020.46 1020.38
1010.06 1010.38 1010.70 1011.02 1011.42 1011.82 1012.10 1012.26 1012.38 1012.42 1012.50 1012.54 1012.66 1012.70 1012.74 1012.82 1012.90 1012.98 1013.18 1013.42 1013.62 1013.82 1013.98 1014.22 1014.38 1014.62 1014.82 1015.18 1015.38 1015.70 1015.98 1016.22 1016.58 1016.98 1017.26 1017.46 1017.82 1017.98 1018.14 1018.18 1018.26 1018.30 1018.30 1018.30 1018.46 1018.58 1018.70 1018.66 1018.82 1019.06 1019.30 1019.26 1019.26 1019.38 1019.58 1019.90 1020.34 1020.42 1020.30 1020.38 1020.42 1020.30 1020.30
1009.94 1010.26 1010.62 1010.94 1011.34 1011.58 1011.74 1011.94 1012.18 1012.42 1012.34 1012.38 1012.38 1012.34 1012.46 1012.54 1012.70 1013.02 1013.34 1013.58 1013.82 1013.98 1014.10 1014.14 1014.26 1014.54 1014.74 1015.02 1015.34 1015.74 1016.06 1016.26 1016.66 1016.98 1017.34 1017.58 1017.86 1018.02 1018.14 1018.30 1018.34 1018.26 1018.26 1018.34 1018.46 1018.62 1018.82 1018.98 1019.10 1019.22 1019.34 1019.38 1019.50 1019.58 1019.70 1019.90 1020.06 1020.34 1020.22 1020.18 1020.34 1020.42 1020.38
1010.02 1010.26 1010.58 1010.82 1011.10 1011.34 1011.58 1011.78 1011.98 1012.02 1012.22 1012.30 1012.14 1012.26 1012.38 1012.62 1012.90 1013.14 1013.34 1013.58 1013.82 1014.14 1014.30 1014.42 1014.38 1014.50 1014.74 1015.10 1015.38 1015.70 1016.06 1016.30 1016.70 1017.10 1017.34 1017.74 1017.94 1018.10 1018.14 1018.22 1018.30 1018.30 1018.26 1018.38 1018.54 1018.66 1018.86 1019.10 1019.22 1019.30 1019.42 1019.38 1019.54 1019.74 1019.78 1020.02 1020.22 1020.42 1020.34 1020.42 1020.38 1020.38 1020.42
1009.98 1010.30 1010.58 1010.82 1011.02 1011.22 1011.50 1011.74 1011.90 1012.10 1012.18 1011.98 1011.94 1012.10 1012.34 1012.74 1013.10 1013.34 1013.74 1014.22 1014.62 1014.86 1014.90 1014.78 1014.62 1014.50 1014.82 1015.14 1015.46 1015.74 1016.10 1016.38 1016.78 1017.18 1017.46 1017.78 1018.02 1018.10 1018.18 1018.22 1018.30 1018.30 1018.26 1018.42 1018.66 1018.78 1018.86 1019.10 1019.22 1019.38 1019.38 1019.34 1019.50 1019.66 1019.82 1019.94 1020.14 1020.14 1020.38 1020.34 1020.62 1020.70 1020.50
1010.02 1010.30 1010.54 1010.78 1011.02 1011.26 1011.50 1011.70 1011.86 1011.98 1012.02 1011.98 1011.98 1012.14 1012.46 1012.78 1013.02 1013.14 1013.66 1014.22 1014.54 1014.74 1015.02 1015.38 1015.42 1015.38 1015.10 1015.14 1015.46 1015.82 1016.10 1016.38 1016.82 1017.26 1017.54 1017.78 1018.02 1018.10 1018.14 1018.18 1018.26 1018.30 1018.38 1018.50 1018.74 1018.86 1018.98 1019.14 1019.30 1019.34 1019.38 1019.38 1019.50 1019.66 1019.78 1019.78 1019.90 1020.06 1020.10 1020.50 1020.74 1020.74 1020.86
1009.98 1010.22 1010.46 1010.70 1011.02 1011.26 1011.50 1011.70 1011.82 1011.90 1011.90 1011.94 1012.06 1012.30 1012.66 1012.98 1013.34 1013.62 1013.94 1014.34 1014.70 1014.90 1015.22 1015.42 1015.42 1015.38 1015.26 1015.30 1015.54 1015.86 1016.18 1016.46 1016.82 1017.14 1017.42 1017.74 1017.98 1018.06 1018.14 1018.30 1018.42 1018.42 1018.50 1018.70 1018.94 1019.06 1019.26 1019.34 1019.34 1019.38 1019.38 1019.42 1019.50 1019.66 1019.78 1019.78 1019.78 1019.82 1020.22 1020.38 1020.78 1020.82 1020.98
1009.94 1010.14 1010.34 1010.62 1010.94 1011.26 1011.50 1011.66 1011.74 1011.74 1011.82 1011.98 1012.18 1012.46 1012.70 1013.02 1013.62 1014.10 1014.22 1014.22 1014.42 1014.86 1015.42 1015.38 1015.22 1015.26 1015.30 1015.38 1015.62 1015.94 1016.26 1016.54 1016.86 1017.14 1017.50 1017.78 1018.02 1018.18 1018.26 1018.34 1018.58 1018.54 1018.62 1018.82 1019.06 1019.22 1019.46 1019.50 1019.54 1019.46 1019.42 1019.50 1019.62 1019.66 1019.70 1019.62 1019.78 1019.82 1020.06 1020.38 1020.94 1021.18 1021.18
1009.78 1009.98 1010.30 1010.58 1010.82 1011.10 1011.38 1011.54 1011.66 1011.70 1011.82 1012.10 1012.22 1012.34 1012.62 1012.86 1013.22 1013.54 1013.70 1013.82 1014.14 1014.66 1015.18 1015.22 1015.14 1015.14 1015.30 1015.46 1015.74 1016.06 1016.34 1016.62 1016.98 1017.38 1017.74 1018.02 1018.26 1018.38 1018.38 1018.58 1018.62 1018.58 1018.62 1018.82 1019.18 1019.46 1019.58 1019.62 1019.66 1019.58 1019.58 1019.66 1019.66 1019.70 1019.66 1019.86 1019.90 1020.10 1020.30 1020.66 1020.86 1021.18 1021.38
1009.58 1009.94 1010.22 1010.46 1010.70 1010.98 1011.26 1011.46 1011.58 1011.70 1011.82 1012.06 1012.34 1012.58 1012.66 1012.90 1013.22 1013.62 1013.90 1014.14 1014.14 1014.50 1014.94 1014.90 1015.06 1015.22 1015.42 1015.62 1015.82 1016.10 1016.46 1016.90 1017.34 1017.70 1018.02 1018.26 1018.50 1018.66 1018.70 1018.70 1018.70 1018.70 1018.78 1019.02 1019.30 1019.50 1019.66 1019.70 1019.62 1019.66 1019.66 1019.70 1019.86 1019.70 1019.86 1019.98 1020.10 1020.26 1020.46 1020.90 1021.38 1021.46 1021.50
1009.50 1009.90 1010.18 1010.42 1010.62 1010.82 1011.14 1011.38 1011.54 1011.70 1011.94 1012.14 1012.34 1012.54 1012.62 1013.02 1013.26 1013.50 1013.82 1014.26 1014.70 1014.82 1014.62 1014.74 1014.90 1015.22 1015.70 1015.90 1015.98 1016.26 1016.66 1017.10 1017.54 1017.98 1018.38 1018.62 1018.78 1018.86 1018.94 1018.86 1018.86 1018.94 1018.98 1019.26 1019.46 1019.66 1019.66 1019.74 1019.78 1019.66 1019.94 1019.74 1019.66 1019.74 1019.94 1020.22 1020.42 1020.74 1020.90 1021.18 1021.54 1021.74 1021.90
1009.42 1009.82 1010.18 1010.42 1010.70 1010.94 1011.14 1011.38 1011.54 1011.74 1012.06 1012.26 1012.34 1012.54 1012.70 1012.98 1013.30 1013.70 1014.02 1014.30 1014.58 1014.78 1014.54 1014.70 1015.06 1015.38 1015.82 1016.14 1016.14 1016.42 1016.86 1017.22 1017.62 1018.14 1018.58 1018.90 1019.10 1019.14 1019.14 1019.14 1019.14 1019.18 1019.30 1019.54 1019.78 1019.86 1019.82 1019.70 1019.50 1019.54 1019.86 1019.74 1019.70 1019.86 1020.26 1020.50 1020.86 1021.02 1021.38 1021.50 1021.74 1021.94 1021.66
1009.50 1009.82 1010.18 1010.42 1010.70 1010.98 1011.22 1011.46 1011.66 1011.90 1012.14 1012.26 1012.46 1012.66 1012.86 1013.10 1013.30 1013.66 1013.98 1014.30 1014.46 1014.66 1014.74 1014.82 1015.06 1015.62 1015.94 1016.10 1016.22 1016.62 1017.02 1017.34 1017.70 1018.14 1018.54 1018.94 1019.26 1019.30 1019.26 1019.18 1019.14 1019.22 1019.50 1019.78 1019.90 1019.94 1019.86 1019.74 1019.58 1019.54 1019.66 1019.62 1019.74 1020.10 1020.30 1020.50 1020.74 1020.98 1021.10 1021.22 1021.46 1021.38 1021.58
1009.46 1009.90 1010.14 1010.38 1010.66 1010.98 1011.26 1011.50 1011.74 1011.94 1012.14 1012.34 1012.50 1012.74 1012.98 1013.26 1013.54 1013.74 1013.90 1014.14 1014.42 1014.66 1014.86 1014.94 1015.38 1015.82 1016.02 1016.14 1016.30 1016.66 1016.98 1017.46 1017.74 1018.10 1018.38 1018.66 1019.02 1019.30 1019.38 1019.42 1019.46 1019.58 1019.86 1020.14 1020.26 1020.10 1019.90 1019.82 1019.82 1019.86 1019.94 1020.02 1020.02 1019.82 1020.06 1020.54 1020.98 1020.98 1021.26 1021.58 1021.86 1021.54 1021.70
1009.54 1009.94 1010.18 1010.46 1010.70 1010.94 1011.26 1011.54 1011.82 1012.02 1012.22 1012.42 1012.58 1012.74 1012.98 1013.26 1013.50 1013.74 1013.94 1014.14 1014.38 1014.54 1014.78 1015.02 1015.42 1015.74 1015.94 1016.10 1016.26 1016.54 1016.94 1017.34 1017.74 1018.06 1018.34 1018.62 1018.98 1019.22 1019.54 1019.70 1019.82 1019.94 1020.18 1020.30 1020.26 1020.18 1020.10 1020.02 1019.98 1019.98 1020.02 1020.10 1020.18 1020.30 1020.30 1020.30 1020.66 1020.94 1021.06 1021.22 1021.42 1021.54 1021.58
1009.66 1010.02 1010.26 1010.50 1010.78 1011.06 1011.34 1011.62 1011.86 1012.10 1012.30 1012.46 1012.70 1012.90 1013.14 1013.34 1013.58 1013.86 1014.06 1014.26 1014.46 1014.62 1014.70 1014.94 1015.30 1015.58 1015.82 1015.98 1016.14 1016.34 1016.82 1017.18 1017.62 1018.02 1018.34 1018.62 1018.90 1019.30 1019.66 1019.90 1020.06 1020.14 1020.10 1020.06 1020.18 1020.18 1020.14 1020.14 1020.18 1020.14 1020.18 1020.22 1020.34 1020.34 1020.42 1020.50 1020.50 1020.54 1020.86 1021.06 1021.26 1021.50 1021.58
1009.82 1010.14 1010.34 1010.66 1010.94 1011.22 1011.42 1011.66 1011.90 1012.10 1012.34 1012.62 1012.90 1013.10 1013.26 1013.46 1013.62 1013.90 1014.10 1014.34 1014.62 1014.78 1014.90 1015.22 1015.50 1015.74 1015.90 1015.98 1016.10 1016.30 1016.78 1017.14 1017.50 1017.86 1018.26 1018.58 1018.94 1019.30 1019.62 1019.82 1020.06 1020.14 1020.14 1020.26 1020.30 1020.18 1020.18 1020.18 1020.18 1020.18 1020.22 1020.34 1020.50 1020.66 1020.74 1020.74 1020.78 1020.86 1020.82 1020.86 1021.06 1021.34 1021.54
1009.86 1010.22 1010.50 1010.78 1011.10 1011.30 1011.50 1011.74 1011.98 1012.22 1012.42 1012.66 1012.90 1013.10 1013.34 1013.54 1013.70 1013.90 1014.10 1014.30 1014.54 1014.78 1015.02 1015.38 1015.58 1015.78 1015.90 1015.94 1016.06 1016.26 1016.74 1017.14 1017.54 1017.90 1018.22 1018.50 1018.78 1019.14 1019.50 1019.70 1019.82 1019.94 1020.18 1020.34 1020.34 1020.18 1020.14 1020.22 1020.26 1020.30 1020.30 1020.42 1020.54 1020.66 1020.78 1020.90 1020.90 1020.94 1020.98 1020.98 1021.02 1021.14 1021.30
1009.86 1010.26 1010.58 1010.86 1011.14 1011.34 1011.54 1011.74 1012.02 1012.26 1012.50 1012.70 1012.82 1013.02 1013.34 1013.50 1013.70 1013.94 1014.14 1014.42 1014.74 1014.94 1015.22 1015.54 1015.62 1015.78 1015.78 1015.90 1016.02 1016.30 1016.78 1017.18 1017.58 1017.94 1018.26 1018.54 1018.78 1019.10 1019.38 1019.58 1019.74 1019.90 1020.06 1020.22 1020.26 1020.22 1020.26 1020.34 1020.30 1020.30 1020.38 1020.54 1020.62 1020.70 1020.74 1020.90 1020.94 1020.94 1020.94 1020.98 1021.02 1021.10 1021.18
1009.86 1010.26 1010.58 1010.94 1011.18 1011.38 1011.58 1011.82 1012.06 1012.22 1012.50 1012.74 1012.90 1013.10 1013.30 1013.46 1013.66 1013.90 1014.18 1014.38 1014.58 1014.86 1015.18 1015.66 1015.74 1015.78 1015.82 1015.94 1015.98 1016.30 1016.74 1017.14 1017.50 1017.86 1018.14 1018.46 1018.82 1019.14 1019.38 1019.50 1019.58 1019.78 1019.98 1020.06 1020.14 1020.18 1020.34 1020.42 1020.38 1020.46 1020.54 1020.66 1020.74 1020.66 1020.70 1020.94 1021.14 1021.18 1021.18 1021.18 1021.22 1021.26 1021.30
1009.70 1010.14 1010.54 1010.90 1011.14 1011.34 1011.50 1011.70 1012.02 1012.14 1012.42 1012.74 1012.90 1013.06 1013.30 1013.54 1013.78 1013.98 1014.14 1014.38 1014.54 1014.78 1015.18 1015.58 1015.82 1015.90 1015.78 1015.86 1015.86 1016.18 1016.62 1017.06 1017.50 1017.78 1018.22 1018.54 1018.86 1019.14 1019.30 1019.30 1019.46 1019.70 1019.78 1019.86 1020.06 1020.18 1020.38 1020.54 1020.50 1020.58 1020.70 1020.82 1020.86 1020.78 1020.82 1020.98 1021.02 1021.22 1021.34 1021.30 1021.30 1021.30 1021.30
1009.38 1009.86 1010.34 1010.70 1010.94 1011.22 1011.42 1011.66 1011.94 1012.10 1012.34 1012.58 1012.82 1013.02 1013.30 1013.54 1013.86 1014.14 1014.26 1014.38 1014.62 1014.82 1015.18 1015.58 1015.90 1015.98 1015.66 1015.74 1015.90 1016.22 1016.58 1017.06 1017.62 1018.06 1018.34 1018.78 1019.10 1019.26 1019.38 1019.42 1019.50 1019.58 1019.58 1019.82 1019.98 1020.06 1020.18 1020.46 1020.50 1020.58 1020.66 1020.86 1020.74 1020.70 1020.58 1020.94 1020.94 1020.90 1020.98 1021.06 1021.06 1021.18 1021.14
1009.14 1009.58 1010.06 1010.50 1010.78 1011.02 1011.34 1011.66 1011.90 1012.06 1012.30 1012.50 1012.82 1013.06 1013.30 1013.54 1013.82 1014.14 1014.34 1014.50 1014.70 1014.78 1015.06 1015.54 1015.94 1016.10 1015.86 1015.74 1015.86 1016.18 1016.58 1017.02 1017.70 1018.26 1018.50 1018.82 1019.30 1019.62 1019.66 1019.74 1019.86 1019.58 1019.62 1019.98 1020.26 1020.26 1020.18 1020.02 1019.98 1020.42 1020.62 1020.74 1020.74 1020.46 1020.74 1020.82 1020.82 1020.90 1020.94 1020.94 1020.86 1020.94 1020.94
1008.98 1009.38 1009.74 1010.14 1010.58 1010.94 1011.14 1011.46 1011.74 1011.98 1012.26 1012.54 1012.82 1013.10 1013.38 1013.62 1013.90 1014.18 1014.42 1014.54 1014.62 1014.82 1014.94 1015.26 1015.90 1016.10 1016.26 1015.98 1015.98 1016.06 1016.58 1016.94 1017.50 1018.02 1018.50 1018.86 1019.14 1019.54 1019.82 1019.86 1019.90 1019.78 1019.70 1019.78 1019.78 1019.82 1019.82 1019.82 1019.94 1020.14 1020.34 1020.34 1020.42 1020.54 1020.90 1020.70 1020.70 1020.90 1020.70 1020.82 1020.82 1020.78 1020.86
1008.70 1009.14 1009.62 1009.98 1010.42 1010.86 1011.02 1011.18 1011.46 1011.82 1012.18 1012.54 1012.82 1013.10 1013.38 1013.66 1013.94 1014.30 1014.58 1014.58 1014.70 1014.90 1015.14 1015.34 1015.78 1016.30 1016.34 1016.18 1016.18 1016.14 1016.50 1017.06 1017.38 1017.86 1018.54 1018.98 1019.30 1019.38 1019.42 1019.58 1019.62 1019.78 1019.70 1019.70 1019.78 1019.90 1019.94 1019.94 1020.06 1020.22 1020.38 1020.46 1020.66 1020.74 1020.70 1020.90 1020.94 1020.86 1020.62 1020.50 1020.30 1020.34 1020.46
1008.86 1009.14 1009.54 1009.82 1010.14 1010.58 1010.82 1011.10 1011.46 1011.78 1012.18 1012.50 1012.82 1013.18 1013.46 1013.74 1014.06 1014.46 1014.82 1015.06 1015.38 1015.74 1016.10 1016.42 1016.50 1016.54 1016.66 1016.58 1016.58 1016.58 1016.62 1017.06 1017.46 1017.58 1018.02 1018.74 1018.90 1019.06 1019.26 1019.38 1019.58 1019.74 1019.62 1019.66 1019.78 1019.94 1020.02 1020.14 1020.14 1020.26 1020.46 1020.54 1020.54 1020.54 1020.66 1020.70 1020.50 1020.42 1020.42 1020.50 1020.54 1020.38 1020.50
1008.90 1009.18 1009.46 1009.74 1009.98 1010.34 1010.74 1010.94 1011.34 1011.70 1012.06 1012.46 1012.86 1013.22 1013.54 1013.82 1014.14 1014.54 1015.06 1015.58 1016.02 1016.66 1016.94 1016.94 1016.86 1016.70 1016.70 1016.78 1016.90 1016.94 1016.86 1016.94 1017.26 1017.66 1017.74 1018.06 1018.50 1018.74 1018.98 1019.18 1019.34 1019.54 1019.54 1019.62 1019.78 1019.98 1020.14 1020.22 1020.30 1020.42 1020.50 1020.50 1020.54 1020.58 1020.38 1020.34 1020.30 1020.18 1020.34 1020.70 1020.70 1020.34 1020.26
Thickness
5705 5701 5700 5699 5699 5699 5697 5694 5692 5692 5694 5697 5697 5695 5693 5690 5688 5688 5687 5686 5685 5684 5684 5684 5683 5683 5682 5681 5681 5681 5680 5680 5679 5675 5671 5669 5669 5667 5667 5667 5666 5665 5664 5663 5661 5659 5655 5653 5654 5657 5657 5656 5655 5652 5650 5647 5646 5645 5642 5641 5639 5637 5636
5704 5700 5698 5697 5697 5696 5693 5690 5690 5690 5691 5695 5694 5693 5692 5691 5688 5686 5685 5684 5683 5682 5681 5681 5681 5680 5679 5678 5678 5677 5677 5678 5677 5675 5672 5669 5669 5667 5666 5665 5662 5661 5661 5660 5660 5659 5656 5653 5649 5649 5651 5652 5649 5645 5645 5643 5642 5641 5640 5639 5637 5635 5634
5701 5699 5696 5695 5694 5693 5689 5687 5688 5689 5689 5689 5688 5688 5689 5689 5687 5685 5683 5682 5681 5680 5679 5679 5679 5677 5675 5674 5674 5674 5675 5675 5675 5674 5671 5669 5668 5667 5665 5663 5660 5658 5657 5656 5656 5655 5654 5651 5648 5645 5645 5646 5642 5638 5638 5639 5638 5638 5638 5637 5635 5633 5631
5700 5697 5694 5692 5691 5690 5688 5686 5687 5687 5687 5686 5685 5685 5685 5685 5684 5683 5681 5680 5678 5677 5677 5678 5677 5676 5674 5672 5671 5671 5671 5672 5672 5671 5668 5667 5667 5665 5663 5661 5658 5656 5656 5654 5652 5653 5652 5650 5648 5645 5644 5643 5639 5635 5635 5635 5635 5635 5635 5634 5632 5630 5629
5700 5697 5694 5693 5693 5691 5687 5686 5685 5685 5683 5682 5681 5681 5681 5682 5681 5679 5678 5677 5676 5674 5675 5676 5676 5674 5672 5670 5669 5668 5667 5668 5669 5668 5665 5665 5665 5663 5660 5657 5654 5653 5653 5652 5651 5651 5650 5649 5647 5645 5643 5642 5638 5633 5633 5633 5632 5632 5631 5630 5629 5628 5626
5701 5699 5698 5696 5695 5691 5687 5684 5682 5682 5680 5679 5679 5678 5679 5681 5680 5677 5676 5676 5675 5673 5673 5673 5673 5672 5670 5668 5667 5665 5664 5665 5666 5665 5663 5662 5662 5660 5656 5652 5650 5650 5650 5649 5649 5648 5647 5647 5646 5644 5642 5639 5636 5633 5631 5631 5630 5629 5628 5628 5626 5625 5624
5702 5701 5701 5699 5694 5689 5685 5683 5682 5681 5679 5677 5678 5678 5678 5679 5679 5678 5675 5674 5673 5672 5671 5671 5670 5669 5667 5665 5663 5662 5661 5663 5664 5662 5660 5660 5658 5656 5652 5649 5647 5646 5647 5647 5647 5646 5646 5645 5644 5643 5640 5637 5633 5631 5630 5629 5628 5627 5625 5624 5624 5623 5622
5704 5703 5701 5698 5693 5688 5685 5682 5682 5681 5680 5679 5679 5678 5678 5678 5678 5677 5674 5672 5671 5670 5670 5669 5668 5666 5664 5662 5661 5660 5660 5662 5661 5658 5657 5657 5655 5652 5650 5646 5644 5644 5645 5645 5646 5645 5644 5644 5642 5642 5640 5636 5631 5628 5627 5626 5625 5624 5623 5621 5621 5620 5620
5705 5703 5700 5696 5692 5688 5685 5684 5683 5682 5681 5680 5679 5678 5677 5677 5676 5676 5674 5671 5670 5669 5668 5667 5665 5664 5662 5661 5660 5659 5660 5660 5658 5655 5654 5654 5651 5649 5647 5644 5643 5642 5643 5644 5644 5644 5643 5642 5640 5639 5639 5637 5631 5626 5623 5621 5621 5621 5621 5619 5617 5616 5617
5705 5702 5699 5694 5691 5688 5686 5685 5683 5682 5680 5679 5678 5678 5677 5675 5674 5674 5673 5670 5669 5668 5667 5666 5664 5663 5662 5661 5660 5659 5658 5657 5654 5652 5652 5650 5648 5646 5643 5642 5641 5641 5642 5642 5643 5643 5642 5639 5638 5637 5636 5635 5633 5627 5622 5620 5619 5619 5620 5618 5616 5614 5614
5704 5701 5698 5694 5690 5687 5684 5683 5681 5679 5679 5678 5677 5677 5676 5675 5673 5673 5672 5670 5669 5667 5665 5664 5663 5662 5661 5659 5658 5657 5655 5653 5650 5649 5649 5647 5645 5643 5640 5640 5640 5639 5640 5641 5640 5640 5639 5638 5636 5635 5633 5632 5631 5628 5624 5620 5617 5617 5617 5616 5615 5614 5612
5704 5700 5697 5694 5690 5686 5683 5682 5679 5677 5677 5677 5676 5675 5675 5675 5673 5672 5669 5667 5666 5664 5663 5662 5661 5660 5659 5656 5655 5653 5651 5649 5647 5646 5646 5644 5642 5639 5638 5637 5638 5638 5638 5638 5638 5636 5636 5635 5633 5631 5629 5628 5628 5626 5624 5620 5617 5615 5615 5614 5613 5612 5611
5702 5698 5696 5693 5689 5686 5683 5681 5679 5677 5676 5675 5675 5674 5675 5674 5671 5668 5665 5663 5662 5659 5658 5658 5658 5657 5655 5654 5652 5650 5648 5647 5645 5643 5642 5640 5637 5637 5636 5635 5635 5636 5636 5636 5635 5634 5632 5631 5630 5629 5626 5625 5624 5622 5621 5619 5615 5613 5613 5612 5610 5609 5609
5700 5697 5694 5691 5688 5685 5683 5681 5678 5676 5675 5675 5674 5673 5672 5670 5666 5663 5661 5659 5656 5653 5653 5654 5654 5654 5652 5650 5649 5647 5646 5644 5642 5640 5638 5636 5634 5633 5633 5633 5633 5633 5634 5633 5632 5631 5629 5627 5626 5625 5623 5622 5621 5619 5617 5616 5613 5611 5610 5609 5607 5606 5606
5698 5695 5692 5689 5687 5684 5681 5679 5677 5675 5674 5674 5673 5672 5668 5665 5662 5661 5658 5653 5650 5648 5647 5648 5649 5650 5649 5647 5646 5644 5643 5641 5638 5636 5634 5632 5631 5630 5630 5631 5631 5631 5631 5630 5629 5627 5626 5625 5623 5622 5621 5621 5619 5617 5615 5613 5611 5609 5607 5606 5603 5602 5601
5695 5693 5690 5688 5685 5682 5680 5678 5675 5674 5673 5673 5671 5668 5663 5661 5660 5659 5654 5649 5647 5645 5643 5643 5642 5643 5644 5644 5642 5641 5640 5638 5636 5634 5631 5629 5628 5627 5628 5628 5628 5629 5629 5627 5625 5624 5623 5622 5620 5619 5618 5619 5617 5615 5613 5611 5610 5608 5606 5603 5600 5598 5597
5694 5692 5690 5686 5684 5680 5678 5676 5674 5673 5672 5670 5668 5663 5660 5657 5654 5652 5648 5646 5644 5642 5640 5639 5639 5640 5641 5641 5639 5638 5637 5635 5633 5631 5629 5627 5625 5624 5625 5625 5625 5626 5625 5623 5622 5620 5619 5618 5617 5617 5616 5616 5615 5612 5611 5609 5608 5606 5604 5600 5597 5594 5593
5693 5691 5688 5685 5682 5679 5677 5675 5673 5673 5670 5668 5664 5660 5657 5654 5649 5645 5645 5644 5643 5640 5636 5637 5638 5638 5638 5638 5636 5634 5633 5631 5629 5628 5625 5623 5622 5621 5622 5622 5622 5622 5622 5619 5618 5616 5614 5614 5613 5613 5614 5613 5611 5610 5608 5607 5606 5604 5601 5598 5594 5590 5589
5692 5690 5687 5685 5681 5678 5676 5674 5673 5671 5668 5665 5661 5658 5656 5653 5649 5645 5644 5644 5642 5638 5634 5634 5636 5635 5634 5634 5632 5631 5629 5627 5625 5623 5620 5618 5617 5617 5618 5619 5618 5618 5618 5616 5613 5612 5610 5610 5609 5610 5610 5609 5608 5607 5606 5604 5602 5600 5597 5594 5590 5587 5585
5691 5689 5686 5684 5681 5679 5676 5674 5672 5669 5666 5662 5659 5656 5654 5651 5648 5645 5642 5640 5639 5637 5635 5634 5633 5631 5630 5630 5629 5627 5625 5623 5620 5617 5615 5614 5612 5613 5614 5615 5614 5615 5614 5612 5610 5607 5606 5606 5607 5607 5607 5606 5605 5604 5602 5600 5598 5596 5593 5589 5586 5583 5581
5690 5687 5685 5682 5680 5678 5675 5673 5670 5667 5664 5660 5657 5655 5652 5648 5644 5641 5639 5637 5635 5634 5634 5633 5630 5627 5626 5625 5625 5624 5622 5619 5616 5613 5610 5608 5608 5610 5610 5610 5610 5610 5609 5607 5605 5604 5604 5603 5605 5605 5604 5604 5603 5601 5599 5596 5594 5591 5588 5585 5581 5578 5577
5688 5685 5683 5680 5678 5676 5674 5671 5668 5665 5661 5658 5655 5652 5648 5645 5641 5638 5636 5634 5632 5632 5632 5630 5627 5624 5622 5621 5621 5620 5617 5616 5613 5609 5606 5604 5604 5605 5606 5606 5607 5607 5606 5604 5601 5601 5601 5602 5603 5603 5602 5601 5600 5598 5594 5591 5589 5586 5584 5581 5578 5576 5574
5685 5683 5681 5678 5676 5673 5671 5668 5666 5662 5659 5657 5654 5650 5646 5642 5639 5635 5633 5632 5631 5630 5630 5628 5624 5621 5619 5619 5618 5616 5614 5612 5610 5607 5604 5602 5602 5602 5603 5603 5604 5604 5602 5600 5598 5597 5598 5599 5601 5601 5599 5599 5597 5595 5591 5588 5585 5584 5581 5578 5575 5574 5572
5682 5680 5678 5676 5674 5671 5668 5666 5663 5660 5657 5655 5652 5649 5645 5641 5637 5635 5632 5630 5629 5628 5626 5625 5621 5617 5616 5617 5616 5614 5612 5610 5608 5606 5604 5602 5601 5600 5599 5599 5600 5599 5597 5595 5594 5595 5596 5597 5598 5597 5596 5595 5593 5592 5590 5586 5583 5580 5578 5575 5572 5571 5568
5679 5677 5675 5673 5671 5668 5666 5663 5660 5657 5654 5653 5651 5648 5644 5640 5637 5634 5631 5629 5628 5626 5625 5623 5620 5617 5616 5616 5615 5614 5612 5610 5608 5605 5603 5601 5600 5598 5596 5595 5595 5594 5592 5591 5592 5593 5593 5594 5594 5593 5592 5591 5589 5588 5586 5585 5581 5579 5576 5573 5570 5568 5565
5675 5673 5671 5669 5667 5665 5662 5660 5657 5655 5652 5650 5648 5646 5642 5640 5636 5633 5630 5628 5626 5625 5625 5622 5620 5617 5616 5616 5616 5615 5613 5610 5607 5604 5601 5600 5598 5596 5593 5592 5590 5589 5589 5589 5589 5590 5590 5590 5590 5590 5588 5587 5585 5583 5582 5581 5579 5577 5575 5572 5569 5565 5563
5671 5669 5667 5665 5663 5661 5659 5657 5655 5653 5650 5647 5645 5643 5640 5638 5635 5632 5629 5627 5625 5624 5623 5621 5618 5616 5615 5615 5615 5614 5611 5609 5606 5603 5600 5599 5596 5593 5592 5590 5587 5586 5586 5586 5586 5586 5587 5587 5586 5586 5584 5582 5581 5579 5577 5576 5575 5572 5571 5569 5567 5564 5560
5668 5665 5663 5660 5659 5658 5657 5655 5652 5650 5648 5645 5644 5641 5638 5636 5633 5631 5629 5626 5624 5622 5621 5618 5617 5616 5615 5615 5614 5612 5610 5607 5605 5602 5599 5597 5595 5592 5590 5588 5586 5584 5583 5583 5582 5583 5583 5583 5582 5581 5580 5579 5576 5575 5573 5572 5570 5568 5567 5565 5563 5561 5558
5664 5662 5660 5657 5656 5655 5654 5652 5650 5647 5645 5643 5642 5639 5637 5634 5632 5629 5627 5624 5622 5620 5618 5616 5615 5614 5614 5614 5613 5611 5608 5605 5602 5600 5597 5595 5592 5590 5588 5586 5584 5582 5581 5580 5580 5580 5579 5579 5579 5577 5576 5574 5573 5571 5570 5568 5567 5565 5563 5562 5560 5558 5556
5662 5659 5657 5654 5653 5652 5651 5650 5647 5645 5643 5641 5639 5638 5635 5632 5630 5627 5625 5622 5621 5619 5616 5613 5612 5612 5612 5612 5611 5609 5606 5603 5601 5598 5595 5592 5589 5586 5584 5583 5582 5580 5579 5577 5577 5576 5575 5575 5574 5573 5571 5569 5568 5567 5566 5564 5563 5561 5559 5558 5556 5554 5552
5661 5657 5655 5653 5651 5650 5649 5647 5645 5643 5641 5639 5637 5636 5633 5630 5627 5625 5623 5621 5619 5617 5614 5611 5609 5609 5610 5610 5610 5608 5604 5602 5598 5596 5593 5589 5585 5583 5581 5580 5579 5579 5577 5576 5575 5574 5572 5570 5569 5569 5567 5565 5564 5564 5563 5561 5558 5557 5555 5554 5552 5550 5548
5660 5657 5654 5652 5650 5649 5648 5645 5643 5642 5640 5637 5635 5634 5631 5628 5625 5622 5620 5619 5617 5615 5613 5609 5607 5606 5608 5608 5607 5605 5603 5599 5595 5592 5588 5584 5581 5579 5578 5576 5575 5576 5575 5573 5572 5570 5569 5568 5567 5565 5563 5561 5560 5560 5559 5557 5555 5554 5552 5550 5548 5547 5545
5659 5656 5654 5651 5650 5648 5646 5644 5641 5640 5638 5636 5633 5631 5629 5626 5623 5620 5618 5616 5615 5613 5611 5608 5604 5603 5604 5605 5605 5603 5600 5597 5593 5589 5586 5582 5578 5575 5573 5571 5570 5572 5571 5569 5567 5567 5567 5567 5566 5563 5560 5558 5557 5557 5555 5553 5552 5550 5548 5547 5546 5544 5542
5659 5657 5654 5651 5649 5646 5645 5643 5640 5638 5636 5633 5630 5628 5626 5623 5621 5617 5615 5614 5612 5611 5609 5607 5603 5600 5599 5601 5601 5600 5598 5595 5591 5587 5583 5579 5576 5572 5568 5566 5566 5567 5568 5566 5564 5564 5564 5564 5562 5560 5557 5555 5554 5552 5550 5548 5547 5546 5545 5544 5543 5541 5539
5658 5656 5653 5650 5647 5645 5643 5642 5639 5637 5634 5631 5628 5626 5623 5621 5618 5615 5612 5610 5608 5607 5605 5602 5599 5596 5595 5595 5596 5596 5594 5591 5587 5585 5580 5575 5572 5569 5566 5564 5564 5564 5564 5563 5561 5560 5559 5558 5557 5555 5553 5551 5549 5547 5545 5544 5543 5541 5541 5540 5540 5538 5536
5656 5653 5651 5649 5647 5644 5642 5640 5638 5635 5632 5629 5625 5622 5620 5618 5615 5611 5607 5605 5602 5599 5595 5593 5592 5591 5589 5589 5589 5590 5589 5587 5584 5582 5578 5573 5570 5567 5564 5562 5561 5560 5560 5558 5557 5555 5554 5553 5551 5550 5548 5546 5545 5543 5542 5541 5539 5538 5537 5535 5534 5533 5532
5651 5650 5648 5646 5644 5642 5640 5639 5636 5633 5630 5626 5622 5619 5617 5615 5612 5608 5603 5599 5595 5591 5588 5587 5587 5586 5585 5584 5583 5583 5584 5583 5580 5578 5575 5572 5570 5567 5563 5560 5558 5557 5556 5554 5552 5550 5548 5547 5545 5544 5542 5541 5541 5540 5538 5537 5536 5535 5532 5529 5528 5528 5528